Year,Month,Day,Hour,Minute,Value (Times are PST for temperature in C)
2017,07,20,12,09,19.80
2017,07,20,12,10,19.70
2017,07,20,12,11,19.60
2017,07,20,12,12,19.60
2017,07,20,12,13,19.60
2017,07,20,12,14,19.60
2017,07,20,12,15,19.60
2017,07,20,12,16,19.60
2017,07,20,12,17,19.60
2017,07,20,12,18,19.70
2017,07,20,12,19,19.70
2017,07,20,12,20,19.70
2017,07,20,12,21,19.70
2017,07,20,12,22,19.70
2017,07,20,12,23,19.70
2017,07,20,12,24,19.80
2017,07,20,12,25,19.90
2017,07,20,12,26,19.80
2017,07,20,12,27,19.70
2017,07,20,12,28,19.60
2017,07,20,12,29,19.50
2017,07,20,12,30,19.50
2017,07,20,12,31,19.40
2017,07,20,12,32,19.40
2017,07,20,12,33,19.40
2017,07,20,12,34,19.40
2017,07,20,12,35,19.40
2017,07,20,12,36,19.40
2017,07,20,12,37,19.40
2017,07,20,12,38,19.40
2017,07,20,12,39,19.30
2017,07,20,12,40,19.30
2017,07,20,12,41,19.30
2017,07,20,12,42,19.30
2017,07,20,12,43,19.30
2017,07,20,12,44,19.30
2017,07,20,12,45,19.30
2017,07,20,12,46,19.40
2017,07,20,12,47,19.40
2017,07,20,12,48,19.40
2017,07,20,12,49,19.50
2017,07,20,12,50,19.60
2017,07,20,12,51,19.60
2017,07,20,12,52,19.80
2017,07,20,12,53,19.90
2017,07,20,12,54,20.00
2017,07,20,12,55,20.10
2017,07,20,12,56,20.10
2017,07,20,12,57,20.10
2017,07,20,12,58,20.20
2017,07,20,12,59,20.20
2017,07,20,13,00,20.20
2017,07,20,13,01,20.20
2017,07,20,13,02,20.20
2017,07,20,13,03,20.10
2017,07,20,13,04,20.10
2017,07,20,13,05,20.10
2017,07,20,13,06,20.00
2017,07,20,13,07,20.00
2017,07,20,13,08,19.90
2017,07,20,13,09,19.90
2017,07,20,13,10,19.90
2017,07,20,13,11,19.80
2017,07,20,13,12,19.70
2017,07,20,13,13,19.70
2017,07,20,13,14,19.70
2017,07,20,13,15,19.70
2017,07,20,13,16,19.70
2017,07,20,13,17,19.80
2017,07,20,13,18,19.80
2017,07,20,13,19,19.80
2017,07,20,13,20,19.80
2017,07,20,13,21,19.90
2017,07,20,13,22,20.00
2017,07,20,13,23,20.10
2017,07,20,13,24,20.10
2017,07,20,13,25,20.10
2017,07,20,13,26,20.10
2017,07,20,13,27,20.20
2017,07,20,13,28,20.20
2017,07,20,13,29,20.20
2017,07,20,13,30,20.20
2017,07,20,13,31,20.20
2017,07,20,13,32,20.20
2017,07,20,13,33,20.20
2017,07,20,13,34,20.20
2017,07,20,13,35,20.20
2017,07,20,13,36,20.20
2017,07,20,13,37,20.20
2017,07,20,13,38,20.10
2017,07,20,13,39,20.10
2017,07,20,13,40,19.90
2017,07,20,13,41,19.80
2017,07,20,13,42,19.70
2017,07,20,13,43,19.60
2017,07,20,13,44,19.60
2017,07,20,13,45,19.60
2017,07,20,13,46,19.50
2017,07,20,13,47,19.50
2017,07,20,13,48,19.50
2017,07,20,13,49,19.40
2017,07,20,13,50,19.40
2017,07,20,13,51,19.30
2017,07,20,13,52,19.30
2017,07,20,13,53,19.30
2017,07,20,13,54,19.30
2017,07,20,13,55,19.40
2017,07,20,13,56,19.40
2017,07,20,13,57,19.40
2017,07,20,13,58,19.50
2017,07,20,13,59,19.50
2017,07,20,14,00,19.50
2017,07,20,14,01,19.50
2017,07,20,14,02,19.60
2017,07,20,14,03,19.70
2017,07,20,14,04,19.80
2017,07,20,14,05,19.90
2017,07,20,14,06,19.90
2017,07,20,14,07,20.10
2017,07,20,14,08,20.20
2017,07,20,14,09,20.20
2017,07,20,14,10,20.20
2017,07,20,14,11,20.20
2017,07,20,14,12,20.20
2017,07,20,14,13,20.20
2017,07,20,14,14,20.30
2017,07,20,14,15,20.30
2017,07,20,14,16,20.30
2017,07,20,14,17,20.30
2017,07,20,14,18,19.90
2017,07,20,14,19,19.80
2017,07,20,14,20,19.90
2017,07,20,14,21,20.00
2017,07,20,14,22,20.10
2017,07,20,14,23,20.20
2017,07,20,14,24,20.30
2017,07,20,14,25,20.30
2017,07,20,14,26,20.60
2017,07,20,14,27,20.70
2017,07,20,14,28,20.70
2017,07,20,14,29,20.70
2017,07,20,14,30,20.70
2017,07,20,14,31,20.70
2017,07,20,14,32,20.80
2017,07,20,14,33,20.80
2017,07,20,14,34,20.80
2017,07,20,14,35,20.80
2017,07,20,14,36,20.80
2017,07,20,14,37,20.80
2017,07,20,14,38,20.90
2017,07,20,14,39,20.90
2017,07,20,14,40,20.80
2017,07,20,14,41,20.80
2017,07,20,14,42,20.80
2017,07,20,14,43,20.80
2017,07,20,14,44,20.80
2017,07,20,14,45,20.80
2017,07,20,14,46,20.80
2017,07,20,14,47,20.70
2017,07,20,14,48,20.70
2017,07,20,14,49,20.70
2017,07,20,14,50,20.70
2017,07,20,14,51,20.70
2017,07,20,14,52,20.70
2017,07,20,14,53,20.60
2017,07,20,14,54,20.60
2017,07,20,14,55,20.60
2017,07,20,14,56,20.60
2017,07,20,14,57,20.60
2017,07,20,14,58,20.70
2017,07,20,14,59,20.60
2017,07,20,15,00,20.40
2017,07,20,15,01,20.40
2017,07,20,15,02,20.40
2017,07,20,15,03,20.30
2017,07,20,15,04,20.30
2017,07,20,15,05,20.20
2017,07,20,15,06,20.20
2017,07,20,15,07,20.20
2017,07,20,15,08,20.30
2017,07,20,15,09,20.30
2017,07,20,15,10,20.30
2017,07,20,15,11,20.20
2017,07,20,15,12,20.20
2017,07,20,15,13,20.20
2017,07,20,15,14,20.00
2017,07,20,15,15,19.90
2017,07,20,15,16,19.90
2017,07,20,15,17,19.90
2017,07,20,15,18,19.80
2017,07,20,15,19,19.80
2017,07,20,15,20,19.70
2017,07,20,15,21,19.70
2017,07,20,15,22,19.60
2017,07,20,15,23,19.60
2017,07,20,15,24,19.60
2017,07,20,15,25,19.60
2017,07,20,15,26,19.60
2017,07,20,15,27,19.60
2017,07,20,15,28,19.60
2017,07,20,15,29,19.50
2017,07,20,15,30,19.50
2017,07,20,15,31,19.50
2017,07,20,15,32,19.40
2017,07,20,15,33,19.40
2017,07,20,15,34,19.40
2017,07,20,15,35,19.40
2017,07,20,15,36,19.40
2017,07,20,15,37,19.40
2017,07,20,15,38,19.50
2017,07,20,15,39,19.50
2017,07,20,15,40,19.50
2017,07,20,15,41,19.60
2017,07,20,15,42,19.60
2017,07,20,15,43,19.50
2017,07,20,15,44,19.50
2017,07,20,15,45,19.50
2017,07,20,15,46,19.50
2017,07,20,15,47,19.50
2017,07,20,15,48,19.50
2017,07,20,15,49,19.50
2017,07,20,15,50,19.50
2017,07,20,15,51,19.50
2017,07,20,15,52,19.40
2017,07,20,15,53,19.40
2017,07,20,15,54,19.30
2017,07,20,15,55,19.30
2017,07,20,15,56,19.30
2017,07,20,15,57,19.30
2017,07,20,15,58,19.30
2017,07,20,15,59,19.30
2017,07,20,16,00,19.20
2017,07,20,16,01,19.20
2017,07,20,16,02,19.20
2017,07,20,16,03,19.20
2017,07,20,16,04,19.20
2017,07,20,16,05,19.20
2017,07,20,16,06,19.20
2017,07,20,16,07,19.20
2017,07,20,16,08,19.20
2017,07,20,16,09,19.20
2017,07,20,16,10,19.10
2017,07,20,16,11,19.10
2017,07,20,16,12,19.00
2017,07,20,16,13,19.00
2017,07,20,16,14,18.90
2017,07,20,16,15,18.90
2017,07,20,16,16,18.90
2017,07,20,16,17,18.90
2017,07,20,16,18,18.90
2017,07,20,16,19,18.90
2017,07,20,16,20,18.90
2017,07,20,16,21,18.90
2017,07,20,16,22,18.90
2017,07,20,16,23,18.90
2017,07,20,16,24,18.90
2017,07,20,16,25,18.90
2017,07,20,18,17,18.70
2017,07,20,18,18,18.70
2017,07,20,18,19,18.70
2017,07,20,18,20,18.80
2017,07,20,18,21,18.80
2017,07,20,18,22,18.80
2017,07,20,18,23,18.80
2017,07,20,18,24,18.80
2017,07,20,18,25,18.80
2017,07,20,18,26,18.80
2017,07,20,18,27,18.80
2017,07,20,18,28,18.80
2017,07,20,18,29,18.80
2017,07,20,18,30,18.80
2017,07,20,18,31,18.80
2017,07,20,18,32,18.70
2017,07,20,18,33,18.70
2017,07,20,18,34,18.70
2017,07,20,18,35,18.70
2017,07,20,18,36,18.70
2017,07,20,18,37,18.70
2017,07,20,18,38,18.70
2017,07,20,18,39,18.70
2017,07,20,18,40,18.70
2017,07,20,18,41,18.80
2017,07,20,18,42,18.80
2017,07,20,18,43,18.80
2017,07,20,18,44,18.80
2017,07,20,18,45,18.80
2017,07,20,18,46,18.80
2017,07,20,18,47,18.70
2017,07,20,18,48,18.70
2017,07,20,18,49,18.70
2017,07,20,18,50,18.70
2017,07,20,18,51,18.70
2017,07,20,18,52,18.70
2017,07,20,18,53,18.70
2017,07,20,18,54,18.60
2017,07,20,18,55,18.70
2017,07,20,18,56,18.70
2017,07,20,18,57,18.70
2017,07,20,18,58,18.70
2017,07,20,18,59,18.70
2017,07,20,19,00,18.70
2017,07,20,19,01,18.70
2017,07,20,19,02,18.70
2017,07,20,19,03,18.70
2017,07,20,19,04,18.70
2017,07,20,19,05,18.70
2017,07,20,19,06,18.70
2017,07,20,19,07,18.70
2017,07,20,19,08,18.70
2017,07,20,19,09,18.70
2017,07,20,19,10,18.70
2017,07,20,19,11,18.70
2017,07,20,19,12,18.70
2017,07,20,19,13,18.70
2017,07,20,19,14,18.70
2017,07,20,19,15,18.80
2017,07,20,19,16,18.80
2017,07,20,19,17,18.80
2017,07,20,19,18,18.80
2017,07,20,19,19,18.80
2017,07,20,19,20,18.80
2017,07,20,19,21,18.80
2017,07,20,19,22,18.80
2017,07,20,19,23,18.80
2017,07,20,19,24,18.80
2017,07,20,19,25,18.80
2017,07,20,19,26,18.80
2017,07,20,19,27,18.80
2017,07,20,19,28,18.80
2017,07,20,19,29,18.80
2017,07,20,19,30,18.90
2017,07,20,19,31,18.90
2017,07,20,19,32,18.90
2017,07,20,19,33,18.90
2017,07,20,19,34,18.90
2017,07,20,19,35,18.90
2017,07,20,19,36,18.90
2017,07,20,19,37,18.90
2017,07,20,19,38,18.90
2017,07,20,19,39,19.00
2017,07,20,19,40,19.00
2017,07,20,19,41,19.00
2017,07,20,19,42,19.00
2017,07,20,19,43,19.00
2017,07,20,19,44,18.90
2017,07,20,19,45,18.90
2017,07,20,19,46,18.90
2017,07,20,19,47,18.90
2017,07,20,19,48,18.90
2017,07,20,19,49,18.90
2017,07,20,19,50,18.90
2017,07,20,19,51,18.90
2017,07,20,19,52,18.90
2017,07,20,19,53,18.90
2017,07,20,19,54,18.80
2017,07,20,19,55,18.80
2017,07,20,19,56,18.80
2017,07,20,19,57,18.80
2017,07,20,19,58,18.80
2017,07,20,19,59,18.80
2017,07,20,20,00,18.80
2017,07,20,20,01,18.80
2017,07,20,20,02,18.70
2017,07,20,20,03,18.70
2017,07,20,20,04,18.70
2017,07,20,20,05,18.70
2017,07,20,20,06,18.70
2017,07,20,20,07,18.70
2017,07,20,20,08,18.70
2017,07,20,20,09,18.70
2017,07,20,20,10,18.70
2017,07,20,20,11,18.70
2017,07,20,20,12,18.70
2017,07,20,20,13,18.70
2017,07,20,20,14,18.70
2017,07,20,20,15,18.70
2017,07,20,20,16,18.70
2017,07,20,20,17,18.70
2017,07,20,20,18,18.70
2017,07,20,20,19,18.70
2017,07,20,20,20,18.60
2017,07,20,20,21,18.60
2017,07,20,20,22,18.60
2017,07,20,20,23,18.60
2017,07,20,20,24,18.60
2017,07,20,20,25,18.60
2017,07,20,20,26,18.60
2017,07,20,20,27,18.60
2017,07,20,20,28,18.60
2017,07,20,20,29,18.60
2017,07,20,20,30,18.60
2017,07,20,20,31,18.60
2017,07,20,20,32,18.60
2017,07,20,20,33,18.50
2017,07,20,20,34,18.50
2017,07,20,20,35,18.50
2017,07,20,20,36,18.50
2017,07,20,20,37,18.50
2017,07,20,20,38,18.50
2017,07,20,20,39,18.50
2017,07,20,20,40,18.50
2017,07,20,20,41,18.50
2017,07,20,20,42,18.50
2017,07,20,20,43,18.50
2017,07,20,20,44,18.50
2017,07,20,20,45,18.50
2017,07,20,20,46,18.50
2017,07,20,20,47,18.50
2017,07,20,20,48,18.50
2017,07,20,20,49,18.50
2017,07,20,20,50,18.50
2017,07,20,20,51,18.40
2017,07,20,20,52,18.40
2017,07,20,20,53,18.40
2017,07,20,20,54,18.40
2017,07,20,20,55,18.40
2017,07,20,20,56,18.40
2017,07,20,20,57,18.40
2017,07,20,20,58,18.40
2017,07,20,20,59,18.40
2017,07,20,21,00,18.40
2017,07,20,21,01,18.40
2017,07,20,21,02,18.40
2017,07,20,21,03,18.40
2017,07,20,21,04,18.40
2017,07,20,21,05,18.40
2017,07,20,21,06,18.30
2017,07,20,21,07,18.30
2017,07,20,21,08,18.30
2017,07,20,21,09,18.30
2017,07,20,21,10,18.30
2017,07,20,21,11,18.40
2017,07,20,21,12,18.40
2017,07,20,21,13,18.40
2017,07,20,21,14,18.40
2017,07,20,21,15,18.30
2017,07,20,21,16,18.30
2017,07,20,21,17,18.30
2017,07,20,21,18,18.30
2017,07,20,21,19,18.20
2017,07,20,21,20,18.20
2017,07,20,21,21,18.20
2017,07,20,21,22,18.20
2017,07,20,21,23,18.20
2017,07,20,21,24,18.10
2017,07,20,21,25,18.10
2017,07,20,21,26,18.10
2017,07,20,21,27,18.10
2017,07,20,21,28,18.10
2017,07,20,21,29,18.00
2017,07,20,21,30,18.00
2017,07,20,21,31,18.00
2017,07,20,21,32,18.00
2017,07,20,21,33,17.90
2017,07,20,21,34,17.90
2017,07,20,21,35,17.90
2017,07,20,21,36,17.90
2017,07,20,21,37,17.90
2017,07,20,21,38,17.90
2017,07,20,21,39,17.90
2017,07,20,21,40,17.80
2017,07,20,21,41,17.80
2017,07,20,21,42,17.80
2017,07,20,21,43,17.80
2017,07,20,21,44,17.80
2017,07,20,21,45,17.80
2017,07,20,21,46,17.80
2017,07,20,21,47,17.70
2017,07,20,21,48,17.70
2017,07,20,21,49,17.70
2017,07,20,21,50,17.70
2017,07,20,21,51,17.70
2017,07,20,21,52,17.70
2017,07,20,21,53,17.70
2017,07,20,21,54,17.60
2017,07,20,21,55,17.60
2017,07,20,21,56,17.60
2017,07,20,21,57,17.60
2017,07,20,21,58,17.60
2017,07,20,21,59,17.50
2017,07,20,22,00,17.50
2017,07,20,22,01,17.50
2017,07,20,22,02,17.50
2017,07,20,22,03,17.50
2017,07,20,22,04,17.40
2017,07,20,22,05,17.40
2017,07,20,22,06,17.40
2017,07,20,22,07,17.40
2017,07,20,22,08,17.40
2017,07,20,22,09,17.40
2017,07,20,22,10,17.40
2017,07,20,22,11,17.40
2017,07,20,22,12,17.40
2017,07,20,22,13,17.30
2017,07,20,22,14,17.20
2017,07,20,22,15,17.20
2017,07,20,22,16,17.20
2017,07,20,22,17,17.20
2017,07,20,22,18,17.20
2017,07,20,22,19,17.20
2017,07,20,22,20,17.20
2017,07,20,22,21,17.20
2017,07,20,22,22,17.20
2017,07,20,22,23,17.20
2017,07,20,22,24,17.20
2017,07,20,22,25,17.20
2017,07,20,22,26,17.20
2017,07,20,22,27,17.20
2017,07,20,22,28,17.20
2017,07,20,22,29,17.20
2017,07,20,22,30,17.20
2017,07,20,22,31,17.20
2017,07,20,22,32,17.20
2017,07,20,22,33,17.20
2017,07,20,22,34,17.20
2017,07,20,22,35,17.10
2017,07,20,22,36,17.10
2017,07,20,22,37,17.20
2017,07,20,22,38,17.10
2017,07,20,22,39,17.10
2017,07,20,22,40,17.10
2017,07,20,22,41,17.10
2017,07,20,22,42,17.10
2017,07,20,22,43,17.10
2017,07,20,22,44,17.10
2017,07,20,22,45,17.10
2017,07,20,22,46,17.10
2017,07,20,22,47,17.10
2017,07,20,22,48,17.10
2017,07,20,22,49,17.10
2017,07,20,22,50,17.10
2017,07,20,22,51,17.10
2017,07,20,22,52,17.10
2017,07,20,22,53,17.10
2017,07,20,22,54,17.00
2017,07,20,22,55,17.00
2017,07,20,22,56,17.10
2017,07,20,22,57,17.00
2017,07,20,22,58,17.00
2017,07,20,22,59,17.00
2017,07,20,23,00,17.00
2017,07,20,23,01,17.00
2017,07,20,23,02,17.00
2017,07,20,23,03,17.00
2017,07,20,23,04,17.00
2017,07,20,23,05,17.00
2017,07,20,23,06,17.00
2017,07,20,23,07,17.00
2017,07,20,23,08,16.90
2017,07,20,23,09,16.90
2017,07,20,23,10,16.90
2017,07,20,23,11,16.90
2017,07,20,23,12,16.90
2017,07,20,23,13,16.90
2017,07,20,23,14,16.90
2017,07,20,23,15,16.90
2017,07,20,23,16,16.90
2017,07,20,23,17,16.90
2017,07,20,23,18,16.90
2017,07,20,23,19,16.90
2017,07,20,23,20,16.80
2017,07,20,23,21,16.80
2017,07,20,23,22,16.80
2017,07,20,23,23,16.80
2017,07,20,23,24,16.80
2017,07,20,23,25,16.80
2017,07,20,23,26,16.80
2017,07,20,23,27,16.80
2017,07,20,23,28,16.80
2017,07,20,23,29,16.80
2017,07,20,23,30,16.80
2017,07,20,23,31,16.70
2017,07,20,23,32,16.70
2017,07,20,23,33,16.70
2017,07,20,23,34,16.70
2017,07,20,23,35,16.70
2017,07,20,23,36,16.70
2017,07,20,23,37,16.70
2017,07,20,23,38,16.70
2017,07,20,23,39,16.70
2017,07,20,23,40,16.70
2017,07,20,23,41,16.60
2017,07,20,23,42,16.60
2017,07,20,23,43,16.60
2017,07,20,23,44,16.60
2017,07,20,23,45,16.60
2017,07,20,23,46,16.60
2017,07,20,23,47,16.60
2017,07,20,23,48,16.60
2017,07,20,23,49,16.60
2017,07,20,23,50,16.60
2017,07,20,23,51,16.60
2017,07,20,23,52,16.60
2017,07,20,23,53,16.60
2017,07,20,23,54,16.60
2017,07,20,23,55,16.50
2017,07,20,23,56,16.50
2017,07,20,23,57,16.50
2017,07,20,23,58,16.50
2017,07,20,23,59,16.50
